CW2220 Weather Reports


Display with metric or nautical units.
time (UTC)temp
F
wind
direction
speed
MPH
gust
MPH
rain 1hr
in
rain 24hr
in
rain mn
in
humidity
%
barometer
mb
20260505021538 68 196 3.0 6.0 0.00 0.00 0.00 77 1012.6
20260505020034 68 184 2.0 6.0 0.00 0.00 0.00 77 1012.5
20260505014551 69 179 2.0 5.0 0.00 0.00 0.00 77 1012.5
20260505013033 69 173 1.0 7.0 0.00 0.00 0.00 76 1012.6
20260505011532 70 205 2.0 7.0 0.00 0.00 0.00 74 1012.5
20260505010035 70 179 2.0 6.0 0.00 0.00 0.00 73 1012.4
20260505004539 71 198 2.0 8.0 0.00 0.00 0.00 72 1012.5
20260505003035 72 139 4.0 9.0 0.00 0.00 0.00 70 1012.8
20260505001530 72 194 3.0 11.0 0.00 0.00 0.00 69 1012.6
20260505000040 73 198 4.0 10.0 0.00 0.00 0.00 68 1012.5
20260504234543 74 167 4.0 9.0 0.00 0.00 0.00 67 1012.5
20260504233052 74 135 4.0 11.0 0.00 0.00 0.00 66 1012.8
20260504231537 75 186 4.0 11.0 0.00 0.00 0.00 64 1013.1
20260504230042 75 225 5.0 12.0 0.00 0.00 0.00 64 1013.3
20260504224540 75 175 5.0 11.0 0.00 0.00 0.00 63 1013.3
20260504223052 76 177 6.0 12.0 0.00 0.00 0.00 62 1013.4
20260504221538 77 201 5.0 11.0 0.00 0.00 0.00 62 1013.5
20260504220035 77 200 6.0 13.0 0.00 0.00 0.00 61 1013.5
20260504214538 78 190 2.0 11.0 0.00 0.00 0.00 59 1013.6
20260504213045 77 198 4.0 11.0 0.00 0.00 0.00 58 1013.9
20260504211538 78 259 4.0 11.0 0.00 0.00 0.00 58 1013.9
20260504210040 77 202 4.0 11.0 0.00 0.00 0.00 58 1014.0
20260504204543 76 175 4.0 12.0 0.00 0.00 0.00 60 1014.3
20260504203041 79 199 4.0 9.0 0.00 0.00 0.00 56 1014.3
20260504201539 78 202 4.0 11.0 0.00 0.00 0.00 56 1014.7
20260504200033 76 139 4.0 11.0 0.00 0.00 0.00 58 1015.1
20260504194535 77 63 3.0 15.0 0.00 0.00 0.00 57 1015.1
20260504193035 77 179 6.0 15.0 0.00 0.00 0.00 57 1015.4
20260504191534 77 191 7.0 14.0 0.00 0.00 0.00 57 1015.8
20260504190036 77 173 5.0 17.0 0.00 0.00 0.00 58 1015.8
20260504184538 77 94 5.0 14.0 0.00 0.00 0.00 57 1015.8
20260504183034 76 148 4.0 16.0 0.00 0.00 0.00 56 1016.0
20260504181542 76 190 8.0 15.0 0.00 0.00 0.00 58 1016.1
20260504180035 76 187 7.0 17.0 0.00 0.00 0.00 55 1016.3
20260504174538 75 193 6.0 15.0 0.00 0.00 0.00 56 1016.3
20260504173036 76 164 6.0 17.0 0.00 0.00 0.00 55 1016.7
20260504171535 76 196 5.0 14.0 0.00 0.00 0.00 55 1017.1
20260504081538 58 0 0.0 0.0 0.00 0.00 0.00 92 1017.1
20260504044543 60 0 0.0 0.0 0.00 0.00 0.00 85 1018.3
20260504043038 61 0 0.0 0.0 0.00 0.00 0.00 83 1018.4
20260504041535 61 0 0.0 0.0 0.00 0.00 0.00 82 1018.6
20260504040044 62 0 0.0 0.0 0.00 0.00 0.00 80 1018.7
20260504034532 62 0 0.0 0.0 0.00 0.00 0.00 78 1018.7
20260504033030 63 0 0.0 1.0 0.00 0.00 0.00 77 1018.9
20260504031536 64 0 0.0 0.0 0.00 0.00 0.00 76 1018.6
20260504030042 64 0 0.0 3.0 0.00 0.00 0.00 74 1018.7
20260504024533 65 0 0.0 1.0 0.00 0.00 0.00 74 1018.6
20260504023033 66 0 0.0 3.0 0.00 0.00 0.00 72 1018.5